{"data":{"norad_id":54164,"epoch":"2026-09-20T04:37:05.119968Z","epoch_age_seconds":115882,"freshness":"FRESH","line1":"1 54164U 22141H   26263.19242037 -.00003858  00000+0 -10308-3 0  9997","line2":"2 54164  53.1580 195.3801 0002695  64.4731 295.6550 15.34394570215436","mean_motion":15.3439457,"eccentricity":0.0002695,"inclination_deg":53.158,"raan_deg":195.3801,"arg_perigee_deg":64.4731,"mean_anomaly_deg":295.655,"bstar":-0.00010308,"rev_number":21543,"period_min":93.848090194949,"perigee_km":460.87576856478,"apogee_km":464.56299015326,"semimajor_km":6840.856379359,"source":"CELESTRAK","updated_at":"2026-09-21T09:00:33.088830Z"}}